Starlink 3606

operational
NORAD ID: 51807 Int'l Des: 2022-017 Owner: SPXS Country: US Constellation: starlink
LEOCIRCULAR

Starlink 3606について

説明を読み込み中...

リアルタイム位置

3D地球を読み込み中...

次回通過

高度履歴

Altitude vs Time

uPlot chart will show altitude changes over time

軌道要素

1 51807U 22017AR 26062.08148432 -.00000090 00000-0 12413-4 0 9994
2 51807 53.2198 8.7867 0001277 100.0386 260.0750 15.08832310223112
Epoch: Mar 3, 2026 • Age: 29 hours

現在のステータス

高度 558.9 km
速度 7.58 km/s
衛星直下点 -52.40°S, 57.55°E
打ち上げ日 Feb 25, 2022
運用期間 4 years
タイプ internet

技術仕様

分類 Payload
質量 297.00 kg
乾燥質量 275.00 kg
総質量 297.00 kg
長さ 0.20 m
直径 2.80 m
スパン 9.00 m
形状 Box + pan
製造者 SPXS
バスタイプ Starlink
フェーズステータス In Orbit
所有者/国 SPXS/US

大規模コンステレーション

Loading constellations...